Date_and_time,latitude,longitude,wind_speed,RelWindDirFrom,WindDirFrom,air_pressure,air_temperature,relative_humidity,Temp,platform_speed_wrt_ground,air_pressure_at_mean_sea_level,platform_orientation
2018-08-08 23:40,51.6393366666667,-96.80276,5.5,15.4,322,983.65,24.0,50,21.24,0.0,1009.26,212.4
2018-08-08 23:50,51.6393366666667,-96.8027616666667,5.5,11.9,311,983.67,24.0,50,21.22,0.0,1009.28,212.4
2018-08-09 00:00,51.6393316666667,-96.802775,4.7,9.7,313,983.72,24.0,48,21.17,0.0,1009.33,166.1
2018-08-09 00:10,51.6393383333333,-96.8027633333333,4.3,8.9,324,983.73,24.0,48,21.27,0.0,1009.33,166.1
2018-08-09 00:20,51.63934,-96.8027666666667,4.6,12.0,318,983.80,23.9,48,21.39,0.0,1009.38,166.1
2018-08-09 00:30,51.6393383333333,-96.8027666666667,5.5,10.9,312,983.82,23.7,48,21.43,0.0,1009.37,166.1
2018-08-09 00:40,51.639335,-96.8027433333333,5.0,10.7,310,983.78,23.5,48,21.44,0.0,1009.34,166.1
2018-08-09 00:50,51.639335,-96.8027533333333,4.0,8.8,324,983.69,23.4,49,21.46,0.0,1009.23,166.1
2018-08-09 01:00,51.6393366666667,-96.8027566666667,3.9,10.6,329,983.65,23.2,49,21.46,0.0,1009.17,164.7
2018-08-09 01:10,51.6393366666667,-96.8027566666667,3.4,9.1,328,983.70,22.9,49,21.45,0.0,1009.23,164.7
2018-08-09 01:20,51.6393366666667,-96.8027583333333,3.8,8.5,319,983.79,22.7,50,21.46,0.0,1009.32,164.7
2018-08-09 01:30,51.6393366666667,-96.80276,3.2,7.4,316,983.86,22.4,51,21.45,0.0,1009.41,164.7
2018-08-09 01:40,51.639335,-96.80276,2.7,6.2,312,983.90,21.9,53,21.42,0.0,1009.48,164.7
2018-08-09 01:50,51.6393366666667,-96.80276,2.7,6.1,309,983.98,21.5,55,21.40,0.0,1009.57,164.7
2018-08-09 02:00,51.6393366666667,-96.80276,2.8,5.4,286,984.08,21.1,58,21.39,0.0,1009.70,7.4
2018-08-09 02:10,51.6393366666667,-96.80276,3.0,4.9,283,984.16,20.7,62,21.38,0.0,1009.80,7.4
2018-08-09 02:20,51.6393366666667,-96.80276,2.9,5.1,285,984.22,20.2,67,21.39,0.0,1009.90,7.4
2018-08-09 02:30,51.6393366666667,-96.8027583333333,3.4,5.9,281,984.36,19.9,69,21.39,0.0,1010.06,7.4
2018-08-09 02:40,51.6393366666667,-96.8027583333333,3.0,5.8,282,984.46,19.6,71,21.41,0.0,1010.18,7.4
2018-08-09 02:50,51.6393366666667,-96.80276,2.6,4.8,286,984.57,19.3,73,21.42,0.0,1010.32,7.4
2018-08-09 03:00,51.6393366666667,-96.8027583333333,2.8,4.6,282,984.65,19.0,74,21.42,0.0,1010.42,90.0
2018-08-09 03:10,51.6393366666667,-96.8027583333333,3.5,5.0,280,984.71,18.8,74,21.42,0.0,1010.50,90.0
2018-08-09 03:20,51.6393366666667,-96.8027566666667,4.1,5.3,280,984.82,18.7,73,21.42,0.0,1010.63,90.0
2018-08-09 03:30,51.6393383333333,-96.8027566666667,3.6,5.4,280,984.87,18.8,71,21.42,0.0,1010.70,90.0
2018-08-09 03:40,51.6393383333333,-96.8027566666667,3.3,5.9,283,984.96,19.0,69,21.40,0.0,1010.80,90.0
2018-08-09 03:50,51.63933,-96.8027483333333,3.7,5.4,285,985.02,19.0,68,21.40,0.0,1010.88,90.0
2018-08-09 04:00,51.639345,-96.80275,2.8,5.1,288,985.05,18.9,67,21.40,0.0,1010.93,360.0
2018-08-09 04:10,51.639345,-96.8027466666667,2.6,4.3,294,985.07,18.9,67,21.38,0.0,1010.98,360.0
2018-08-09 04:20,51.639345,-96.8027466666667,2.8,4.7,285,985.09,18.9,68,21.38,0.0,1011.02,360.0
2018-08-09 04:30,51.639345,-96.8027483333333,3.2,4.8,281,985.17,18.7,69,21.37,0.0,1011.12,360.0
2018-08-09 04:40,51.6393433333333,-96.8027466666667,3.0,4.6,282,985.18,18.4,72,21.36,0.0,1011.16,360.0
2018-08-09 04:50,51.6393433333333,-96.8027483333333,3.0,4.3,293,985.22,18.2,73,21.36,0.0,1011.21,360.0
2018-08-09 05:00,51.6393433333333,-96.8027483333333,3.2,4.6,292,985.30,18.2,72,21.34,0.0,1011.30,360.0
2018-08-09 05:10,51.6393416666667,-96.80275,3.6,5.1,300,985.29,18.2,73,21.34,0.0,1011.30,360.0
2018-08-09 05:20,51.6393433333333,-96.8027516666667,3.4,5.0,295,985.33,18.6,70,21.34,0.0,1011.32,360.0
2018-08-09 05:30,51.6393433333333,-96.8027516666667,3.8,6.1,287,985.38,18.5,72,21.33,0.0,1011.37,360.0
2018-08-09 05:40,51.6393433333333,-96.8027533333333,3.5,6.0,284,985.45,18.1,76,21.31,0.0,1011.46,360.0
2018-08-09 05:50,51.6393433333333,-96.8027533333333,3.8,5.8,289,985.51,18.0,75,21.30,0.0,1011.53,360.0
2018-08-09 06:00,51.6393566666667,-96.802765,3.7,5.8,290,985.58,17.9,75,21.28,0.0,1011.60,360.0
2018-08-09 06:10,51.639345,-96.8027616666667,3.8,5.7,291,985.65,17.9,75,21.27,0.0,1011.68,360.0
2018-08-09 06:20,51.6393416666667,-96.802765,3.6,5.6,291,985.73,18.1,75,21.25,0.0,1011.77,360.0
2018-08-09 06:30,51.63934,-96.8027616666667,3.6,4.7,294,985.80,18.0,75,21.23,0.0,1011.85,360.0
2018-08-09 06:40,51.63934,-96.8027583333333,3.4,5.0,290,985.81,17.9,76,21.23,0.0,1011.87,360.0
2018-08-09 06:50,51.6393383333333,-96.80276,2.8,4.2,282,985.83,17.9,77,21.22,0.0,1011.89,360.0
2018-08-09 07:00,51.6393566666667,-96.80277,3.0,4.0,280,985.83,17.9,79,21.22,0.0,1011.89,320.8
2018-08-09 07:10,51.6393433333333,-96.8027566666667,1.6,2.9,248,985.88,17.7,83,21.21,0.0,1011.93,320.8
2018-08-09 07:20,51.6393416666667,-96.8027566666667,1.4,2.1,251,985.95,17.3,88,21.21,0.0,1012.04,320.8
2018-08-09 07:30,51.6393433333333,-96.8027566666667,1.3,2.2,263,985.95,16.9,88,21.20,0.0,1012.07,320.8
2018-08-09 07:40,51.6393433333333,-96.802755,1.8,2.9,246,985.95,16.5,95,21.17,0.0,1012.09,320.8
2018-08-09 07:50,51.6393416666667,-96.8027516666667,1.8,2.4,241,986.01,16.0,99,21.16,0.0,1012.18,320.8
2018-08-09 08:00,51.6393433333333,-96.802755,1.6,2.5,239,986.10,16.0,98,21.16,0.0,1012.27,270.0
2018-08-09 08:10,51.6393433333333,-96.802755,1.8,2.3,252,986.13,15.9,97,21.16,0.0,1012.30,270.0
2018-08-09 08:20,51.6393633333333,-96.8027816666667,2.0,3.0,252,986.12,15.8,96,21.15,0.0,1012.30,270.0
2018-08-09 08:30,51.6393483333333,-96.8027683333333,1.9,2.7,250,986.18,15.7,94,21.15,0.0,1012.37,270.0
2018-08-09 08:40,51.6393483333333,-96.802765,1.0,1.5,243,986.28,15.7,93,21.14,0.0,1012.47,270.0
2018-08-09 08:50,51.6393466666667,-96.8027616666667,1.8,2.9,249,986.39,15.7,96,21.14,0.0,1012.58,270.0
2018-08-09 09:00,51.6393466666667,-96.8027633333333,2.8,3.5,251,986.35,15.4,97,21.13,0.0,1012.56,360.0
2018-08-09 09:10,51.6393283333333,-96.8027583333333,1.5,2.4,247,986.32,15.4,99,21.13,0.0,1012.55,360.0
2018-08-09 09:20,51.6393533333333,-96.802775,2.1,3.3,269,986.38,15.3,98,21.12,0.0,1012.64,360.0
2018-08-09 09:30,51.63935,-96.802765,3.0,3.8,266,986.47,15.4,98,21.12,0.0,1012.75,360.0
2018-08-09 09:40,51.63935,-96.8027566666667,2.1,3.1,258,986.48,15.8,99,21.12,0.0,1012.75,360.0
2018-08-09 09:50,51.63935,-96.8027566666667,1.9,3.1,261,986.53,16.0,99,21.12,0.0,1012.80,360.0
2018-08-09 10:00,51.6393283333333,-96.8027516666667,2.4,4.0,231,986.55,16.0,99,21.11,0.0,1012.82,173.0
2018-08-09 10:10,51.6393433333333,-96.80276,2.9,3.8,251,986.50,16.0,99,21.11,0.0,1012.78,173.0
2018-08-09 10:20,51.6393433333333,-96.80276,2.0,3.6,259,986.59,15.9,99,21.11,0.0,1012.88,173.0
2018-08-09 10:30,51.6393433333333,-96.8027566666667,2.0,2.9,262,986.72,15.9,99,21.10,0.0,1013.01,173.0
2018-08-09 10:40,51.6393433333333,-96.8027566666667,2.0,3.4,244,986.75,15.9,100,21.08,0.0,1013.04,173.0
2018-08-09 10:50,51.6393433333333,-96.8027566666667,1.3,3.0,230,986.76,16.0,100,21.05,0.0,1013.06,173.0
2018-08-09 11:00,51.6393416666667,-96.8027466666667,1.4,3.1,246,986.78,16.1,100,21.03,0.0,1013.08,90.0
2018-08-09 11:10,51.63934,-96.8027533333333,1.0,1.9,261,986.83,16.0,100,21.01,0.0,1013.14,90.0
2018-08-09 11:20,51.647855,-96.78555,1.3,5.6,11,986.88,16.2,99,20.99,4.9,1013.17,90.0
2018-08-09 11:30,51.6764883333333,-96.781055,8.6,14.4,346,986.80,17.4,93,20.86,10.4,1013.03,90.0
2018-08-09 11:40,51.705535,-96.8011283333333,11.3,13.7,323,986.80,17.5,95,20.85,11.4,1013.01,90.0
2018-08-09 11:50,51.7336916666667,-96.825085,9.8,11.4,326,986.85,17.4,92,20.80,11.5,1013.06,90.0
2018-08-09 12:00,51.760325,-96.8547466666667,10.2,11.8,313,986.85,16.9,93,20.80,11.6,1013.08,345.1
2018-08-09 12:10,51.78767,-96.882475,10.7,12.8,300,986.87,17.8,96,20.76,11.6,1013.07,345.1
2018-08-09 12:20,51.816315,-96.905125,11.4,12.8,296,986.99,19.2,80,20.70,11.5,1013.13,345.1
2018-08-09 12:30,51.8449066666667,-96.9269683333333,9.6,12.2,289,987.10,19.6,80,20.65,11.4,1013.23,345.1
2018-08-09 12:40,51.8736483333333,-96.9482716666667,11.4,12.9,291,987.14,19.8,81,20.63,11.4,1013.26,345.1
2018-08-09 12:50,51.902515,-96.96885,11.8,14.9,290,987.20,19.9,76,20.59,11.4,1013.31,345.1
2018-08-09 13:00,51.9313216666667,-96.989265,11.4,14.1,292,987.26,19.9,77,20.52,11.3,1013.37,338.5
2018-08-09 13:10,51.9599183333333,-97.0103916666667,10.7,13.7,298,987.29,19.9,79,20.54,11.3,1013.39,338.5
2018-08-09 13:20,51.988555,-97.0316466666667,11.3,13.4,299,987.36,19.9,74,20.60,11.3,1013.41,338.5
2018-08-09 13:30,52.0171866666667,-97.0531083333333,9.7,11.1,301,987.44,19.8,76,20.58,11.4,1013.49,338.5
2018-08-09 13:40,52.04585,-97.074655,8.5,9.6,306,987.54,19.7,77,20.58,11.4,1013.60,338.5
2018-08-09 13:50,52.0745016666667,-97.0962416666667,6.6,8.6,317,987.61,19.8,77,20.58,11.4,1013.69,338.5
2018-08-09 14:00,52.1032433333333,-97.1177383333333,5.8,7.2,318,987.62,19.9,76,20.60,11.4,1013.66,337.4
2018-08-09 14:10,52.13197,-97.139245,5.0,6.0,318,987.59,20.0,77,20.61,11.4,1013.56,337.4
2018-08-09 14:20,52.1607433333333,-97.16084,4.5,6.2,317,987.51,20.2,78,20.61,11.4,1013.45,337.4
2018-08-09 14:30,52.1895533333333,-97.182535,4.8,6.9,321,987.45,20.3,78,20.58,11.4,1013.38,337.4
2018-08-09 14:40,52.22015,-97.1912166666667,3.5,6.0,2,987.33,20.4,78,20.56,11.2,1013.25,337.4
2018-08-09 14:50,52.23445,-97.190485,3.2,6.0,174,987.28,21.9,69,20.52,5.2,1013.12,337.4
2018-08-09 15:00,52.2418316666667,-97.19037,5.0,6.2,173,987.30,24.9,56,20.57,2.7,1013.01,336.9
2018-08-09 15:10,52.2495916666667,-97.1905616666667,4.7,6.1,155,987.37,25.6,59,20.60,2.8,1013.05,336.9
2018-08-09 15:20,52.2587283333333,-97.19045,5.4,6.8,152,987.33,25.4,60,20.62,3.3,1013.03,336.9
2018-08-09 15:30,52.26733,-97.1916383333333,6.8,11.0,176,987.16,23.1,68,20.65,3.1,1012.96,336.9
2018-08-09 15:40,52.2673866666667,-97.1917533333333,9.3,10.4,183,987.05,20.9,78,20.69,0.0,1012.94,336.9
2018-08-09 15:50,52.2674,-97.1916966666667,9.9,11.3,188,987.05,20.7,80,20.71,0.0,1012.95,336.9
2018-08-09 16:00,52.2673966666667,-97.19173,11.0,12.4,190,986.94,20.8,79,20.74,0.0,1012.82,339.8
2018-08-09 16:10,52.2674066666667,-97.19173,10.5,11.8,191,986.97,20.8,80,20.75,0.0,1012.84,339.8
2018-08-09 16:20,52.26716,-97.1917333333333,10.6,12.0,195,986.95,20.8,82,20.75,0.1,1012.82,339.8
2018-08-09 16:30,52.2920966666667,-97.1943516666667,2.8,12.9,240,987.12,20.7,83,20.76,9.0,1012.99,339.8
2018-08-09 16:40,52.32398,-97.1937016666667,3.5,4.5,315,987.10,20.7,86,20.63,11.5,1012.90,339.8
2018-08-09 16:50,52.355085,-97.1956666666667,4.9,12.9,283,987.14,20.9,80,20.53,11.2,1012.80,339.8
2018-08-09 17:00,52.3760083333333,-97.233715,13.9,19.6,280,986.85,21.1,80,20.49,11.3,1012.46,345.5
2018-08-09 17:10,52.3968566666667,-97.2712916666667,16.6,19.1,284,986.58,20.9,82,20.47,11.2,1012.20,345.5
2018-08-09 17:20,52.4102383333333,-97.2945816666667,11.6,15.9,269,986.95,20.4,89,20.58,7.0,1012.71,345.5
2018-08-09 17:30,52.41517,-97.3034683333333,8.5,9.4,245,987.13,20.4,91,20.67,2.6,1012.99,345.5
2018-08-09 17:40,52.4205616666667,-97.3135666666667,8.3,9.3,246,987.12,20.5,91,20.72,2.9,1012.99,345.5
2018-08-09 17:50,52.4257766666667,-97.3238516666667,8.8,9.7,245,987.14,20.5,91,20.76,2.9,1013.00,345.5
2018-08-09 18:00,52.4333816666667,-97.3385566666667,8.8,11.3,258,987.07,20.6,92,20.83,4.2,1012.93,334.8
2018-08-09 18:10,52.4335683333333,-97.33819,7.2,8.0,236,987.07,20.8,92,20.79,0.1,1012.92,334.8
2018-08-09 18:20,52.4335666666667,-97.338175,6.5,7.5,237,987.13,21.0,91,20.77,0.0,1012.98,334.8
2018-08-09 18:30,52.4335266666667,-97.33816,6.1,7.5,250,987.13,21.3,87,20.95,0.0,1012.97,334.8
2018-08-09 18:40,52.433305,-97.3383366666667,6.4,7.5,244,987.08,21.4,87,21.06,0.1,1012.89,334.8
2018-08-09 18:50,52.44833,-97.3692516666667,11.5,13.9,282,986.80,21.2,91,21.10,8.7,1012.61,334.8
2018-08-09 19:00,52.4640216666667,-97.3966966666667,9.1,12.3,286,986.87,21.1,93,20.96,8.3,1012.70,327.6
2018-08-09 19:10,52.4809016666667,-97.4276116666667,9.8,13.0,289,986.81,21.3,92,20.95,9.1,1012.64,327.6
2018-08-09 19:20,52.500935,-97.4652733333333,11.6,12.9,293,986.76,21.7,87,20.56,11.0,1012.58,327.6
2018-08-09 19:30,52.5209716666667,-97.5027516666667,13.2,15.0,298,986.63,22.0,82,20.52,10.9,1012.43,327.6
2018-08-09 19:40,52.5410583333333,-97.5404683333333,14.1,15.6,305,986.60,22.1,81,20.43,11.0,1012.39,327.6
2018-08-09 19:50,52.561165,-97.5779266666667,14.3,15.2,312,986.58,22.0,84,20.40,10.9,1012.37,327.6
2018-08-09 20:00,52.5811683333333,-97.61543,14.3,15.0,307,986.59,22.0,85,20.41,10.9,1012.37,311.6
2018-08-09 20:10,52.60087,-97.6530716666667,14.0,14.6,308,986.56,21.9,86,20.57,10.9,1012.34,311.6
2018-08-09 20:20,52.615145,-97.6806566666667,11.0,14.5,312,986.58,22.0,83,20.72,7.9,1012.34,311.6
2018-08-09 20:30,52.6202483333333,-97.68945,5.1,6.0,315,986.70,22.3,80,21.15,2.7,1012.44,311.6
2018-08-09 20:40,52.624625,-97.6989133333333,3.9,5.1,311,986.65,22.5,81,21.32,2.6,1012.40,311.6
2018-08-09 20:50,52.6292016666667,-97.7082066666667,3.0,3.8,322,986.66,22.7,78,21.36,2.6,1012.40,311.6
2018-08-09 21:00,52.632235,-97.718965,2.9,3.9,346,986.51,22.8,77,21.44,2.6,1012.23,310.8
2018-08-09 21:10,52.64231,-97.7339133333333,4.2,7.7,0,986.31,22.9,77,21.17,4.9,1012.00,310.8
2018-08-09 21:20,52.642205,-97.7339933333333,3.1,3.7,84,986.32,23.6,77,21.25,0.0,1011.98,310.8
2018-08-09 21:30,52.6422133333333,-97.7340916666667,4.2,5.3,93,986.27,23.2,81,21.65,0.0,1011.93,310.8
2018-08-09 21:40,52.6422183333333,-97.734155,4.7,5.2,100,986.15,23.1,84,21.98,0.0,1011.82,310.8
2018-08-09 21:50,52.6422516666667,-97.7341166666667,4.2,4.7,115,986.13,23.2,86,22.08,0.0,1011.79,310.8
2018-08-09 22:00,52.6628683333333,-97.7119633333333,8.9,11.0,61,986.04,23.1,86,21.50,8.9,1011.72,316.2
2018-08-09 22:10,52.6883733333333,-97.6845083333333,9.1,11.0,55,986.08,23.1,84,20.94,11.0,1011.75,316.2
2018-08-09 22:20,52.713805,-97.6572366666667,8.8,9.7,52,986.00,23.4,81,21.14,10.9,1011.65,316.2
2018-08-09 22:30,52.7388766666667,-97.6292083333333,9.3,10.5,49,985.98,23.8,73,21.27,10.9,1011.59,316.2
2018-08-09 22:40,52.7635883333333,-97.6002916666667,8.5,9.4,54,985.90,24.0,70,21.36,10.9,1011.49,316.2
2018-08-09 22:50,52.772205,-97.5903383333333,3.9,9.2,95,986.06,24.2,68,21.73,3.8,1011.64,316.2
2018-08-09 23:00,52.7788916666667,-97.5831816666667,3.9,5.0,115,985.94,24.5,69,22.98,2.9,1011.50,5.7
2018-08-09 23:10,52.7857566666667,-97.57595,4.3,5.0,138,985.89,24.5,76,22.93,2.9,1011.42,5.7
2018-08-09 23:20,52.7924966666667,-97.5653583333333,5.1,6.6,135,985.85,24.4,77,22.87,3.3,1011.41,5.7
2018-08-09 23:30,52.7958083333333,-97.56286,5.3,7.0,164,985.73,24.7,74,22.66,1.3,1011.27,5.7
2018-08-09 23:40,52.795895,-97.562525,6.8,7.9,175,985.59,24.0,79,22.64,0.1,1011.15,5.7
2018-08-09 23:50,52.7959166666667,-97.562555,7.5,8.5,180,985.58,23.9,79,22.32,0.0,1011.16,5.7
